| time (UTC) | temp F | wind direction | speed MPH | gust MPH | rain 1hr in | rain 24hr in | rain mn in | humidity % | barometer mb |
| 20260506111549 | 56 | 186 | 2.0 | 2.0 | 0.00 | 0.00 | 0.00 | 78 | 1015.9 |
| 20260506111050 | 56 | 275 | 0.0 | 3.0 | 0.00 | 0.00 | 0.00 | 80 | 1015.9 |
| 20260506110550 | 56 | 289 | 0.0 | 5.0 | 0.00 | 0.00 | 0.00 | 81 | 1015.9 |
| 20260506105548 | 56 | 257 | 0.0 | 3.0 | 0.00 | 0.00 | 0.00 | 81 | 1015.9 |
| 20260506105051 | 56 | 324 | 3.0 | 3.0 | 0.00 | 0.00 | 0.00 | 81 | 1015.9 |
| 20260506104549 | 56 | 265 | 0.0 | 3.0 | 0.00 | 0.00 | 0.00 | 81 | 1015.8 |
| 20260506104308 | 56 | 268 | 0.0 | 3.0 | 0.00 | 0.00 | 0.00 | 81 | 1015.9 |
| 20260506103547 | 56 | 290 | 0.0 | 3.0 | 0.00 | 0.00 | 0.00 | 80 | 1015.7 |
| 20260506103312 | 56 | 275 | 2.0 | 2.0 | 0.00 | 0.00 | 0.00 | 79 | 1015.7 |
| 20260506102550 | 56 | 196 | 2.0 | 6.0 | 0.00 | 0.00 | 0.00 | 78 | 1015.7 |
| 20260506102047 | 56 | 267 | 0.0 | 6.0 | 0.00 | 0.00 | 0.00 | 81 | 1015.8 |
| 20260506101547 | 56 | 25 | 3.0 | 5.0 | 0.00 | 0.00 | 0.00 | 81 | 1015.8 |
| 20260506101048 | 56 | 4 | 2.0 | 2.0 | 0.00 | 0.00 | 0.00 | 81 | 1015.7 |
| 20260506100547 | 57 | 261 | 0.0 | 0.0 | 0.00 | 0.00 | 0.00 | 79 | 1015.7 |
| 20260506095948 | 56 | 244 | 1.0 | 2.0 | 0.00 | 0.12 | 0.00 | 80 | 1015.6 |
| 20260506095448 | 56 | 300 | 0.0 | 2.0 | 0.00 | 0.12 | 0.00 | 80 | 1015.6 |
| 20260506094950 | 56 | 229 | 0.0 | 3.0 | 0.00 | 0.12 | 0.00 | 78 | 1015.6 |
| 20260506094713 | 56 | 154 | 2.0 | 5.0 | 0.00 | 0.12 | 0.00 | 78 | 1015.6 |
| 20260506094207 | 56 | 337 | 0.0 | 5.0 | 0.00 | 0.12 | 0.00 | 81 | 1015.5 |
| 20260506092949 | 56 | 265 | 0.0 | 5.0 | 0.00 | 0.12 | 0.00 | 80 | 1015.5 |
| 20260506092449 | 56 | 316 | 1.0 | 5.0 | 0.00 | 0.12 | 0.00 | 81 | 1015.6 |
| 20260506091947 | 56 | 21 | 2.0 | 3.0 | 0.00 | 0.12 | 0.00 | 81 | 1015.6 |
| 20260506091447 | 56 | 337 | 1.0 | 3.0 | 0.00 | 0.12 | 0.00 | 81 | 1015.6 |
| 20260506090948 | 56 | 307 | 2.0 | 2.0 | 0.00 | 0.12 | 0.00 | 81 | 1015.7 |
| 20260506090449 | 56 | 268 | 0.0 | 3.0 | 0.00 | 0.12 | 0.00 | 81 | 1015.8 |
| 20260506085947 | 56 | 353 | 1.0 | 3.0 | 0.00 | 0.12 | 0.00 | 81 | 1015.7 |
| 20260506085448 | 56 | 253 | 0.0 | 0.0 | 0.00 | 0.12 | 0.00 | 79 | 1015.9 |
| 20260506084948 | 56 | 249 | 0.0 | 0.0 | 0.00 | 0.12 | 0.00 | 80 | 1016.0 |
| 20260506084449 | 56 | 272 | 0.0 | 1.0 | 0.00 | 0.12 | 0.00 | 80 | 1016.1 |
| 20260506083947 | 57 | 273 | 0.0 | 2.0 | 0.00 | 0.12 | 0.00 | 78 | 1016.0 |
| 20260506083445 | 56 | 250 | 0.0 | 2.0 | 0.00 | 0.12 | 0.00 | 77 | 1016.1 |
| 20260506082947 | 56 | 243 | 1.0 | 1.0 | 0.00 | 0.12 | 0.00 | 78 | 1016.1 |
| 20260506082448 | 56 | 242 | 1.0 | 1.0 | 0.00 | 0.12 | 0.00 | 78 | 1016.2 |
| 20260506081946 | 57 | 272 | 0.0 | 0.0 | 0.00 | 0.12 | 0.00 | 78 | 1016.2 |
| 20260506081447 | 57 | 273 | 0.0 | 1.0 | 0.00 | 0.12 | 0.00 | 78 | 1016.2 |
| 20260506080949 | 57 | 282 | 0.0 | 1.0 | 0.00 | 0.12 | 0.00 | 78 | 1016.3 |
| 20260506080447 | 57 | 281 | 1.0 | 1.0 | 0.00 | 0.12 | 0.00 | 78 | 1016.3 |
| 20260506073445 | 58 | 266 | 0.0 | 2.0 | 0.00 | 0.12 | 0.00 | 77 | 1016.4 |
| 20260506072944 | 58 | 276 | 1.0 | 3.0 | 0.00 | 0.12 | 0.00 | 76 | 1016.5 |
| 20260506072447 | 58 | 330 | 3.0 | 3.0 | 0.00 | 0.12 | 0.00 | 76 | 1016.5 |
| 20260506071945 | 58 | 282 | 0.0 | 2.0 | 0.00 | 0.12 | 0.00 | 76 | 1016.5 |
| 20260506071446 | 58 | 303 | 0.0 | 2.0 | 0.00 | 0.12 | 0.00 | 75 | 1016.4 |
| 20260506070944 | 58 | 265 | 0.0 | 1.0 | 0.00 | 0.12 | 0.00 | 75 | 1016.5 |
| 20260506070708 | 58 | 287 | 0.0 | 3.0 | 0.00 | 0.12 | 0.00 | 75 | 1016.4 |
| 20260506062446 | 59 | 270 | 0.0 | 0.0 | 0.00 | 0.12 | 0.20 | 74 | 1016.1 |
| 20260506061945 | 59 | 270 | 0.0 | 0.0 | 0.00 | 0.12 | 0.20 | 73 | 1016.1 |
| 20260506061443 | 59 | 271 | 0.0 | 0.0 | 0.00 | 0.12 | 0.20 | 73 | 1016.1 |
| 20260506060943 | 59 | 263 | 0.0 | 2.0 | 0.00 | 0.12 | 0.20 | 73 | 1016.1 |
| 20260506060445 | 59 | 263 | 0.0 | 2.0 | 0.00 | 0.12 | 0.20 | 73 | 1016.1 |
| 20260506050943 | 59 | 265 | 1.0 | 5.0 | 0.00 | 0.12 | 0.20 | 72 | 1016.0 |
| 20260506050444 | 59 | 263 | 2.0 | 5.0 | 0.00 | 0.12 | 0.20 | 73 | 1016.0 |
| 20260506044441 | 59 | 248 | 0.0 | 3.0 | 0.00 | 0.12 | 0.20 | 73 | 1015.8 |
| 20260506043943 | 59 | 254 | 0.0 | 5.0 | 0.00 | 0.12 | 0.20 | 72 | 1015.8 |
| 20260506043445 | 59 | 268 | 2.0 | 5.0 | 0.00 | 0.12 | 0.20 | 73 | 1015.8 |
| 20260506042941 | 59 | 286 | 3.0 | 5.0 | 0.00 | 0.12 | 0.20 | 72 | 1015.8 |
| 20260506042709 | 59 | 286 | 4.0 | 7.0 | 0.00 | 0.12 | 0.20 | 72 | 1015.8 |
| 20260506041943 | 59 | 282 | 1.0 | 7.0 | 0.00 | 0.12 | 0.20 | 73 | 1015.6 |
| 20260506041442 | 59 | 309 | 4.0 | 6.0 | 0.00 | 0.12 | 0.20 | 72 | 1015.5 |
| 20260506040941 | 59 | 268 | 2.0 | 6.0 | 0.00 | 0.12 | 0.20 | 72 | 1015.5 |
| 20260506040441 | 59 | 262 | 2.0 | 6.0 | 0.00 | 0.12 | 0.20 | 72 | 1015.4 |
| 20260506035942 | 59 | 315 | 5.0 | 6.0 | 0.00 | 0.12 | 0.20 | 72 | 1015.3 |
| 20260506035441 | 60 | 283 | 0.0 | 6.0 | 0.00 | 0.12 | 0.20 | 72 | 1015.3 |
| 20260506034941 | 60 | 320 | 4.0 | 6.0 | 0.00 | 0.12 | 0.20 | 72 | 1015.2 |
| 20260506034703 | 60 | 249 | 5.0 | 8.0 | 0.00 | 0.12 | 0.20 | 71 | 1015.1 |
| 20260506033942 | 60 | 224 | 3.0 | 8.0 | 0.00 | 0.12 | 0.20 | 70 | 1015.1 |
| 20260506033443 | 60 | 275 | 2.0 | 8.0 | 0.00 | 0.12 | 0.20 | 70 | 1015.0 |
| 20260506032941 | 60 | 290 | 3.0 | 9.0 | 0.00 | 0.12 | 0.20 | 70 | 1015.0 |
| 20260506032440 | 60 | 352 | 5.0 | 9.0 | 0.00 | 0.12 | 0.20 | 71 | 1014.8 |
| 20260506031942 | 59 | 332 | 6.0 | 8.0 | 0.00 | 0.12 | 0.20 | 71 | 1014.8 |
| 20260506031441 | 59 | 265 | 2.0 | 9.0 | 0.00 | 0.12 | 0.20 | 70 | 1014.8 |
| 20260506030938 | 59 | 342 | 7.0 | 9.0 | 0.00 | 0.12 | 0.20 | 70 | 1014.7 |
| 20260506030440 | 59 | 257 | 3.0 | 8.0 | 0.00 | 0.12 | 0.20 | 70 | 1014.6 |
| 20260506025941 | 60 | 335 | 3.0 | 10.0 | 0.00 | 0.12 | 0.20 | 70 | 1014.6 |
| 20260506025439 | 60 | 262 | 2.0 | 10.0 | 0.00 | 0.12 | 0.20 | 70 | 1014.5 |
| 20260506024938 | 60 | 311 | 4.0 | 9.0 | 0.00 | 0.12 | 0.20 | 71 | 1014.4 |
| 20260506024441 | 60 | 275 | 3.0 | 10.0 | 0.00 | 0.12 | 0.20 | 71 | 1014.4 |
| 20260506023939 | 60 | 306 | 7.0 | 10.0 | 0.00 | 0.12 | 0.20 | 71 | 1014.3 |
| 20260506023440 | 60 | 278 | 4.0 | 8.0 | 0.00 | 0.12 | 0.20 | 71 | 1014.3 |
| 20260506022939 | 60 | 257 | 2.0 | 9.0 | 0.00 | 0.12 | 0.20 | 71 | 1014.2 |
| 20260506021940 | 61 | 307 | 6.0 | 12.0 | 0.00 | 0.12 | 0.20 | 70 | 1014.1 |
| 20260506021441 | 61 | 330 | 3.0 | 12.0 | 0.00 | 0.12 | 0.20 | 69 | 1014.0 |
| 20260506020938 | 61 | 314 | 6.0 | 13.0 | 0.00 | 0.12 | 0.20 | 69 | 1014.0 |
| 20260506020438 | 61 | 342 | 7.0 | 13.0 | 0.00 | 0.12 | 0.20 | 69 | 1013.9 |
| 20260506015940 | 62 | 287 | 5.0 | 10.0 | 0.00 | 0.12 | 0.20 | 68 | 1013.9 |
| 20260506015440 | 62 | 275 | 1.0 | 10.0 | 0.00 | 0.12 | 0.20 | 68 | 1013.9 |
| 20260506014939 | 62 | 15 | 3.0 | 15.0 | 0.00 | 0.12 | 0.20 | 68 | 1013.8 |
| 20260506014654 | 62 | 297 | 6.0 | 15.0 | 0.00 | 0.12 | 0.20 | 69 | 1013.7 |
| 20260506014159 | 62 | 249 | 4.0 | 12.0 | 0.00 | 0.12 | 0.20 | 66 | 1013.8 |
| 20260506013439 | 62 | 336 | 9.0 | 12.0 | 0.00 | 0.12 | 0.20 | 66 | 1013.7 |
| 20260506012937 | 62 | 259 | 4.0 | 15.0 | 0.00 | 0.12 | 0.20 | 66 | 1013.8 |
| 20260506012437 | 62 | 340 | 8.0 | 15.0 | 0.00 | 0.12 | 0.20 | 67 | 1013.7 |
| 20260506011937 | 62 | 312 | 6.0 | 10.0 | 0.00 | 0.12 | 0.20 | 66 | 1013.6 |
| 20260506011438 | 62 | 356 | 8.0 | 12.0 | 0.00 | 0.12 | 0.20 | 66 | 1013.6 |
| 20260506011200 | 62 | 307 | 7.0 | 13.0 | 0.00 | 0.12 | 0.20 | 64 | 1013.7 |
| 20260506010437 | 62 | 331 | 2.0 | 13.0 | 0.00 | 0.12 | 0.20 | 64 | 1013.7 |
| 20260506005938 | 62 | 341 | 7.0 | 14.0 | 0.00 | 0.12 | 0.20 | 66 | 1013.7 |
| 20260506005438 | 63 | 342 | 8.0 | 14.0 | 0.00 | 0.12 | 0.20 | 66 | 1013.7 |
| 20260506004938 | 63 | 297 | 9.0 | 15.0 | 0.00 | 0.12 | 0.20 | 63 | 1013.6 |
| 20260506004437 | 63 | 303 | 4.0 | 16.0 | 0.00 | 0.12 | 0.20 | 63 | 1013.6 |
| 20260506003936 | 63 | 311 | 9.0 | 16.0 | 0.00 | 0.12 | 0.20 | 63 | 1013.6 |
| 20260506003437 | 63 | 318 | 6.0 | 16.0 | 0.00 | 0.12 | 0.20 | 63 | 1013.5 |
| 20260506002939 | 63 | 280 | 7.0 | 17.0 | 0.00 | 0.12 | 0.20 | 61 | 1013.6 |
| 20260506002438 | 63 | 345 | 13.0 | 17.0 | 0.00 | 0.12 | 0.20 | 63 | 1013.5 |
| 20260506001937 | 63 | 298 | 4.0 | 15.0 | 0.00 | 0.12 | 0.20 | 64 | 1013.4 |
| 20260506001440 | 63 | 310 | 9.0 | 14.0 | 0.00 | 0.12 | 0.20 | 65 | 1013.4 |
| 20260506000937 | 64 | 308 | 6.0 | 14.0 | 0.00 | 0.12 | 0.20 | 64 | 1013.5 |
| 20260505235936 | 64 | 305 | 4.0 | 15.0 | 0.00 | 0.12 | 0.20 | 66 | 1013.4 |
| 20260505235438 | 64 | 292 | 8.0 | 10.0 | 0.00 | 0.12 | 0.20 | 62 | 1013.4 |
| 20260505234937 | 64 | 307 | 5.0 | 10.0 | 0.00 | 0.12 | 0.20 | 62 | 1013.6 |
| 20260505234435 | 64 | 281 | 3.0 | 15.0 | 0.00 | 0.12 | 0.20 | 59 | 1013.5 |
| 20260505233436 | 64 | 302 | 8.0 | 13.0 | 0.00 | 0.12 | 0.20 | 61 | 1013.5 |
| 20260505232936 | 64 | 265 | 2.0 | 13.0 | 0.00 | 0.12 | 0.20 | 58 | 1013.5 |
| 20260505232435 | 64 | 297 | 6.0 | 13.0 | 0.00 | 0.12 | 0.20 | 57 | 1013.6 |
| 20260505231936 | 64 | 345 | 5.0 | 12.0 | 0.00 | 0.12 | 0.20 | 58 | 1013.5 |
| 20260505231437 | 65 | 272 | 6.0 | 12.0 | 0.00 | 0.12 | 0.20 | 58 | 1013.6 |
| 20260505230936 | 65 | 213 | 6.0 | 14.0 | 0.00 | 0.12 | 0.20 | 60 | 1013.5 |
| 20260505230436 | 65 | 337 | 9.0 | 14.0 | 0.00 | 0.12 | 0.20 | 59 | 1013.6 |
| 20260505225934 | 65 | 318 | 4.0 | 16.0 | 0.00 | 0.12 | 0.20 | 55 | 1013.6 |
| 20260505225436 | 65 | 334 | 6.0 | 16.0 | 0.00 | 0.12 | 0.20 | 60 | 1013.5 |
| 20260505224936 | 65 | 254 | 6.0 | 15.0 | 0.00 | 0.12 | 0.20 | 55 | 1013.6 |
| 20260505224434 | 65 | 267 | 2.0 | 15.0 | 0.00 | 0.12 | 0.20 | 60 | 1013.6 |
| 20260505223935 | 65 | 285 | 6.0 | 13.0 | 0.00 | 0.12 | 0.20 | 57 | 1013.7 |
| 20260505223435 | 64 | 267 | 9.0 | 13.0 | 0.00 | 0.12 | 0.20 | 57 | 1013.9 |
| 20260505222935 | 64 | 318 | 3.0 | 14.0 | 0.00 | 0.12 | 0.20 | 58 | 1013.8 |
| 20260505222435 | 64 | 308 | 4.0 | 14.0 | 0.00 | 0.12 | 0.20 | 63 | 1013.8 |
| 20260505222152 | 64 | 250 | 4.0 | 16.0 | 0.00 | 0.12 | 0.20 | 60 | 1013.9 |
| 20260505221433 | 64 | 26 | 10.0 | 16.0 | 0.00 | 0.12 | 0.20 | 59 | 1013.9 |
| 20260505220934 | 64 | 334 | 5.0 | 18.0 | 0.00 | 0.12 | 0.20 | 57 | 1014.0 |
| 20260505220654 | 64 | 287 | 5.0 | 21.0 | 0.00 | 0.12 | 0.20 | 59 | 1014.0 |
| 20260505215933 | 64 | 326 | 7.0 | 21.0 | 0.00 | 0.12 | 0.20 | 61 | 1014.0 |
| 20260505215434 | 65 | 277 | 3.0 | 16.0 | 0.00 | 0.12 | 0.20 | 63 | 1014.0 |
| 20260505214935 | 65 | 337 | 7.0 | 17.0 | 0.00 | 0.12 | 0.20 | 60 | 1014.0 |
| 20260505214657 | 64 | 289 | 7.0 | 17.0 | 0.00 | 0.12 | 0.20 | 60 | 1014.0 |
| 20260505213933 | 64 | 350 | 4.0 | 18.0 | 0.00 | 0.12 | 0.20 | 58 | 1014.0 |
| 20260505213701 | 64 | 334 | 9.0 | 18.0 | 0.00 | 0.12 | 0.20 | 59 | 1014.0 |
| 20260505212934 | 64 | 340 | 5.0 | 12.0 | 0.00 | 0.12 | 0.20 | 58 | 1014.2 |
| 20260505212435 | 64 | 260 | 1.0 | 14.0 | 0.00 | 0.12 | 0.20 | 55 | 1014.1 |
| 20260505211932 | 63 | 305 | 8.0 | 16.0 | 0.00 | 0.12 | 0.20 | 57 | 1014.2 |
| 20260505211432 | 64 | 319 | 8.0 | 18.0 | 0.00 | 0.12 | 0.20 | 63 | 1014.2 |
| 20260505210933 | 64 | 351 | 9.0 | 18.0 | 0.00 | 0.12 | 0.20 | 64 | 1014.3 |
| 20260505210433 | 64 | 353 | 10.0 | 16.0 | 0.00 | 0.12 | 0.20 | 65 | 1014.3 |
| 20260505205932 | 64 | 11 | 9.0 | 18.0 | 0.00 | 0.12 | 0.20 | 64 | 1014.4 |
| 20260505204934 | 64 | 262 | 5.0 | 15.0 | 0.00 | 0.12 | 0.20 | 66 | 1014.3 |
| 20260505204433 | 64 | 291 | 5.0 | 18.0 | 0.00 | 0.12 | 0.20 | 62 | 1014.3 |
| 20260505204154 | 64 | 298 | 3.0 | 18.0 | 0.00 | 0.12 | 0.20 | 63 | 1014.3 |
| 20260505203431 | 64 | 233 | 4.0 | 18.0 | 0.00 | 0.12 | 0.20 | 64 | 1014.4 |
| 20260505202934 | 64 | 335 | 14.0 | 18.0 | 0.00 | 0.12 | 0.20 | 60 | 1014.4 |
| 20260505201932 | 63 | 260 | 4.0 | 15.0 | 0.00 | 0.12 | 0.20 | 60 | 1014.4 |
| 20260505201431 | 63 | 294 | 12.0 | 15.0 | 0.00 | 0.12 | 0.20 | 59 | 1014.4 |
| 20260505200933 | 63 | 346 | 7.0 | 15.0 | 0.00 | 0.12 | 0.20 | 58 | 1014.5 |
| 20260505200432 | 63 | 306 | 8.0 | 18.0 | 0.00 | 0.12 | 0.20 | 64 | 1014.5 |
| 20260505195932 | 63 | 334 | 11.0 | 18.0 | 0.00 | 0.12 | 0.20 | 66 | 1014.4 |
| 20260505195432 | 63 | 253 | 6.0 | 16.0 | 0.00 | 0.12 | 0.20 | 65 | 1014.6 |
| 20260505194931 | 63 | 320 | 9.0 | 16.0 | 0.00 | 0.12 | 0.20 | 65 | 1014.4 |
| 20260505194432 | 63 | 303 | 8.0 | 16.0 | 0.00 | 0.12 | 0.20 | 66 | 1014.7 |
| 20260505193930 | 63 | 276 | 8.0 | 16.0 | 0.00 | 0.12 | 0.20 | 65 | 1014.6 |
| 20260505193651 | 63 | 348 | 7.0 | 15.0 | 0.00 | 0.12 | 0.20 | 64 | 1014.6 |
| 20260505192930 | 63 | 347 | 10.0 | 15.0 | 0.00 | 0.12 | 0.20 | 64 | 1014.6 |
| 20260505192431 | 63 | 265 | 8.0 | 15.0 | 0.00 | 0.12 | 0.20 | 66 | 1014.7 |
| 20260505191930 | 63 | 264 | 3.0 | 15.0 | 0.00 | 0.12 | 0.20 | 69 | 1014.6 |
| 20260505190930 | 63 | 349 | 4.0 | 17.0 | 0.00 | 0.12 | 0.20 | 66 | 1014.6 |
| 20260505190652 | 63 | 274 | 4.0 | 13.0 | 0.00 | 0.12 | 0.20 | 65 | 1014.7 |
| 20260505190204 | 63 | 337 | 7.0 | 13.0 | 0.00 | 0.12 | 0.20 | 64 | 1014.7 |
| 20260505185431 | 63 | 257 | 5.0 | 14.0 | 0.00 | 0.12 | 0.20 | 64 | 1014.6 |
| 20260505184931 | 64 | 341 | 6.0 | 17.0 | 0.00 | 0.12 | 0.20 | 66 | 1014.6 |
| 20260505184431 | 64 | 332 | 8.0 | 17.0 | 0.00 | 0.12 | 0.20 | 67 | 1014.5 |
| 20260505183931 | 64 | 298 | 7.0 | 12.0 | 0.00 | 0.12 | 0.20 | 66 | 1014.7 |
| 20260505183430 | 64 | 310 | 5.0 | 14.0 | 0.00 | 0.12 | 0.20 | 67 | 1014.6 |
| 20260505183152 | 63 | 291 | 4.0 | 14.0 | 0.00 | 0.12 | 0.20 | 64 | 1014.6 |
| 20260505182658 | 63 | 324 | 6.0 | 12.0 | 0.00 | 0.12 | 0.20 | 66 | 1014.7 |
| 20260505181930 | 63 | 258 | 3.0 | 12.0 | 0.00 | 0.12 | 0.20 | 65 | 1014.5 |
| 20260505181428 | 62 | 272 | 9.0 | 14.0 | 0.00 | 0.12 | 0.20 | 65 | 1014.6 |
| 20260505180931 | 62 | 226 | 5.0 | 16.0 | 0.00 | 0.12 | 0.20 | 64 | 1014.5 |
| 20260505180656 | 62 | 332 | 9.0 | 16.0 | 0.00 | 0.12 | 0.20 | 65 | 1014.4 |
| 20260505175930 | 62 | 263 | 6.0 | 16.0 | 0.00 | 0.12 | 0.20 | 67 | 1014.5 |
| 20260505175429 | 62 | 355 | 8.0 | 16.0 | 0.00 | 0.12 | 0.20 | 71 | 1014.5 |
| 20260505174930 | 61 | 241 | 3.0 | 12.0 | 0.00 | 0.12 | 0.20 | 71 | 1014.4 |
| 20260505174431 | 61 | 233 | 9.0 | 13.0 | 0.00 | 0.12 | 0.20 | 69 | 1014.2 |
| 20260505173929 | 61 | 271 | 7.0 | 17.0 | 0.00 | 0.12 | 0.20 | 69 | 1014.2 |
| 20260505173649 | 61 | 326 | 12.0 | 17.0 | 0.00 | 0.12 | 0.20 | 70 | 1014.1 |
| 20260505172930 | 61 | 305 | 6.0 | 16.0 | 0.00 | 0.12 | 0.20 | 68 | 1014.1 |
| 20260505172429 | 61 | 349 | 7.0 | 16.0 | 0.00 | 0.12 | 0.20 | 71 | 1014.1 |
| 20260505172148 | 60 | 339 | 11.0 | 15.0 | 0.00 | 0.12 | 0.20 | 73 | 1014.1 |
| 20260505171429 | 60 | 279 | 2.0 | 14.0 | 0.00 | 0.12 | 0.20 | 75 | 1014.0 |
| 20260505170928 | 60 | 280 | 9.0 | 16.0 | 0.00 | 0.12 | 0.20 | 71 | 1014.0 |
| 20260505170429 | 60 | 333 | 5.0 | 16.0 | 0.00 | 0.12 | 0.20 | 74 | 1014.0 |
| 20260505170146 | 60 | 337 | 6.0 | 14.0 | 0.00 | 0.12 | 0.20 | 71 | 1014.0 |
| 20260505165427 | 60 | 281 | 6.0 | 16.0 | 0.00 | 0.12 | 0.20 | 73 | 1014.0 |
| 20260505164926 | 60 | 276 | 7.0 | 16.0 | 0.00 | 0.12 | 0.20 | 75 | 1013.9 |
| 20260505164427 | 60 | 319 | 7.0 | 14.0 | 0.00 | 0.12 | 0.20 | 74 | 1013.8 |
| 20260505163931 | 60 | 283 | 7.0 | 15.0 | 0.00 | 0.12 | 0.20 | 75 | 1013.7 |
| 20260505163427 | 60 | 310 | 5.0 | 15.0 | 0.00 | 0.12 | 0.20 | 78 | 1013.7 |
| 20260505162928 | 60 | 344 | 11.0 | 15.0 | 0.00 | 0.12 | 0.20 | 76 | 1013.6 |
| 20260505162427 | 60 | 348 | 2.0 | 10.0 | 0.00 | 0.12 | 0.20 | 78 | 1013.6 |
| 20260505161427 | 60 | 324 | 5.0 | 7.0 | 0.00 | 0.12 | 0.20 | 80 | 1013.5 |
| 20260505160926 | 60 | 332 | 1.0 | 6.0 | 0.00 | 0.12 | 0.20 | 83 | 1013.4 |
| 20260505160426 | 59 | 226 | 1.0 | 6.0 | 0.00 | 0.12 | 0.20 | 80 | 1013.5 |
| 20260505153152 | 57 | 333 | 3.0 | 5.0 | 0.00 | 0.12 | 0.20 | 87 | 1013.2 |
| 20260505152653 | 56 | 259 | 0.0 | 1.0 | 0.00 | 0.12 | 0.20 | 89 | 1013.3 |
| 20260505151927 | 56 | 285 | 0.0 | 2.0 | 0.00 | 0.12 | 0.20 | 90 | 1013.3 |
| 20260505151425 | 56 | 263 | 0.0 | 2.0 | 0.00 | 0.12 | 0.20 | 90 | 1013.3 |
| 20260505150926 | 55 | 305 | 0.0 | 2.0 | 0.00 | 0.12 | 0.20 | 90 | 1013.3 |
| 20260505150425 | 55 | 275 | 0.0 | 2.0 | 0.01 | 0.12 | 0.20 | 90 | 1013.2 |
| 20260505140422 | 55 | 255 | 0.0 | 7.0 | 0.07 | 0.11 | 0.19 | 94 | 1012.8 |
| 20260505140147 | 55 | 259 | 4.0 | 9.0 | 0.06 | 0.10 | 0.18 | 94 | 1012.9 |
| 20260505124923 | 56 | 341 | 5.0 | 8.0 | 0.01 | 0.04 | 0.12 | 92 | 1012.2 |
| 20260505124651 | 56 | 333 | 5.0 | 10.0 | 0.01 | 0.04 | 0.12 | 92 | 1012.1 |
| 20260505123922 | 56 | 330 | 6.0 | 10.0 | 0.01 | 0.04 | 0.12 | 92 | 1012.2 |
| 20260505123423 | 56 | 340 | 6.0 | 8.0 | 0.01 | 0.04 | 0.12 | 92 | 1012.2 |
| 20260505122924 | 56 | 305 | 5.0 | 8.0 | 0.01 | 0.04 | 0.12 | 92 | 1012.1 |
| 20260505122423 | 56 | 25 | 5.0 | 8.0 | 0.03 | 0.04 | 0.12 | 92 | 1012.1 |
| 20260505121921 | 56 | 339 | 5.0 | 9.0 | 0.04 | 0.04 | 0.12 | 92 | 1012.1 |
| 20260505121422 | 56 | 344 | 4.0 | 9.0 | 0.04 | 0.04 | 0.12 | 92 | 1012.2 |
| 20260505120922 | 56 | 330 | 2.0 | 5.0 | 0.04 | 0.04 | 0.12 | 93 | 1012.1 |
| 20260505120421 | 56 | 275 | 2.0 | 6.0 | 0.04 | 0.04 | 0.12 | 93 | 1012.1 |
| 20260505120143 | 56 | 230 | 2.0 | 6.0 | 0.03 | 0.03 | 0.11 | 93 | 1012.1 |
| 20260505115646 | 56 | 227 | 1.0 | 3.0 | 0.03 | 0.03 | 0.11 | 94 | 1012.0 |
| 20260505114921 | 56 | 226 | 1.0 | 3.0 | 0.03 | 0.03 | 0.11 | 94 | 1012.0 |
| 20260505114420 | 56 | 235 | 0.0 | 0.0 | 0.03 | 0.03 | 0.11 | 94 | 1012.0 |
| 20260505113921 | 56 | 245 | 0.0 | 1.0 | 0.03 | 0.03 | 0.11 | 94 | 1012.0 |
| 20260505113421 | 56 | 245 | 0.0 | 3.0 | 0.03 | 0.03 | 0.11 | 94 | 1012.0 |
| 20260505113143 | 56 | 239 | 1.0 | 6.0 | 0.03 | 0.03 | 0.11 | 94 | 1012.1 |
| 20260505111920 | 56 | 253 | 2.0 | 2.0 | 0.00 | 0.00 | 0.08 | 92 | 1012.0 |